Snowfall_Accumulation
2.5 2.8 2.9 3.2 3.4 3.6 4.4 4.1 4.5 4.0 4.3 4.7 4.7 4.7 4.8 5.0 5.2 5.6 5.6 5.6 5.9 5.8 6.9 7.4 7.5 7.1 6.4 6.0 6.9 6.6 6.1 6.1 6.1 6.0 6.3 6.4 6.9 8.1 7.6 8.7 12.3 13.6 9.7 4.3 2.5 2.3 2.7 2.2 1.5 2.0 1.6 2.5 2.8 2.8 2.3 1.7 1.7 1.9 2.1 2.2 2.4 2.8 2.7
3.0 3.1 3.2 3.4 3.5 3.5 3.8 4.7 4.9 4.7 5.1 5.4 5.2 5.2 5.1 5.8 6.5 6.3 6.4 6.1 6.6 6.0 6.2 6.9 7.7 7.4 6.9 6.6 7.9 7.8 7.7 7.3 6.8 7.0 7.2 6.9 7.3 8.2 8.1 7.2 10.5 11.9 10.4 8.6 4.0 3.2 2.3 2.6 1.5 2.4 1.4 2.3 2.5 3.1 2.9 3.0 2.6 2.3 2.2 2.4 2.4 2.7 2.9
3.3 3.4 3.5 3.5 3.4 3.4 3.8 3.8 4.2 3.9 4.8 5.4 5.5 5.6 5.4 5.4 5.8 6.3 6.6 6.5 6.4 6.1 6.0 7.0 7.5 7.6 6.9 6.8 8.4 8.3 8.3 7.7 7.9 7.3 7.5 7.5 6.5 7.3 7.0 6.9 8.0 10.7 11.8 9.1 7.0 3.9 3.8 3.3 2.5 2.6 2.5 2.1 2.4 2.5 2.3 3.3 3.6 3.3 3.1 2.8 2.7 3.0 3.0
3.5 3.7 3.6 3.9 4.0 4.3 3.9 3.9 3.7 3.9 4.3 4.6 4.6 5.2 5.6 5.2 5.2 5.6 6.1 6.5 6.4 6.4 6.9 7.6 8.2 8.1 7.6 8.0 9.0 8.9 8.7 8.8 8.8 9.0 8.8 8.3 7.2 6.9 6.7 6.1 6.4 7.4 9.9 9.2 9.0 5.8 4.8 3.7 3.4 2.7 2.1 2.2 2.2 3.1 3.7 3.5 3.7 3.5 3.8 3.4 3.3 3.4 3.9
3.7 3.9 4.1 4.2 4.0 3.8 3.7 3.8 3.7 3.9 4.0 3.9 3.9 4.3 4.5 4.9 5.3 5.4 5.7 5.7 6.1 6.6 7.2 7.5 7.8 7.4 7.4 8.1 9.7 9.4 9.6 9.6 10.1 10.3 10.5 10.8 9.5 9.3 8.5 7.9 7.6 7.9 7.9 10.2 10.2 7.5 4.5 3.6 3.4 2.9 2.9 2.6 3.6 3.9 4.2 4.1 4.6 4.6 5.0 4.6 4.2 3.8 4.0
4.3 4.3 4.1 4.0 3.9 3.9 4.2 3.9 4.0 4.2 4.7 4.1 3.7 3.7 3.9 4.1 4.3 4.4 4.7 5.0 5.3 5.6 6.2 6.9 7.0 6.9 7.2 7.8 9.2 9.6 9.0 9.9 11.2 11.2 11.5 11.8 11.8 11.8 11.1 11.4 11.0 10.1 10.6 11.0 10.6 8.5 7.2 4.2 4.2 4.0 3.9 3.5 3.9 4.4 5.0 5.8 5.7 4.9 5.5 6.1 6.7 6.0 5.3
4.6 4.4 4.3 4.1 4.0 4.1 4.1 4.0 3.9 4.1 4.2 4.1 4.0 4.2 4.4 4.5 4.4 4.3 4.2 4.4 4.4 4.2 4.5 5.0 5.4 5.9 6.2 7.3 7.9 8.6 8.6 8.9 9.0 10.2 11.2 11.4 11.9 11.5 12.8 14.8 14.9 13.9 13.6 13.4 13.0 11.1 8.4 7.1 5.0 4.2 5.1 3.6 3.1 3.5 4.0 5.6 6.9 7.8 6.4 6.2 6.3 6.8 6.0
4.7 4.2 4.1 4.2 4.2 3.9 3.9 4.0 4.0 4.0 4.4 4.5 4.4 4.7 5.1 5.0 5.7 5.8 5.3 4.6 4.1 4.1 4.4 4.3 4.3 4.5 4.5 4.9 5.3 6.1 6.4 7.0 8.7 9.1 10.7 9.9 10.4 11.7 13.9 15.6 14.9 14.9 15.2 15.5 14.8 13.2 10.9 8.0 6.8 5.3 4.3 4.0 4.3 5.2 5.2 4.8 6.0 8.0 7.5 7.3 6.7 6.5 7.1
4.8 4.7 4.8 4.2 4.1 4.4 3.9 4.3 4.2 4.3 5.4 5.5 5.4 6.1 7.8 7.8 8.0 7.5 7.1 6.5 6.0 5.3 4.8 4.5 4.4 4.1 4.4 4.0 3.9 4.2 4.7 5.5 6.7 8.7 10.9 10.3 10.3 12.4 14.3 15.7 15.7 16.3 16.6 16.3 15.3 14.2 10.2 9.6 8.3 7.0 6.3 5.9 6.3 7.4 7.5 5.3 5.0 6.6 5.7 5.6 6.1 6.7 6.5
4.9 5.3 6.7 5.1 4.7 4.5 5.0 4.7 4.4 4.5 6.4 6.2 9.7 12.3 13.5 13.8 13.4 12.7 12.3 11.6 10.3 8.4 6.9 6.0 5.3 4.5 3.7 3.7 3.9 4.4 5.0 6.0 6.9 7.5 9.0 11.1 11.7 13.1 15.1 16.5 17.3 16.9 15.7 15.9 17.2 15.1 12.1 12.2 10.4 8.0 6.8 6.3 5.4 4.5 4.0 4.6 5.3 6.6 5.7 5.0 6.0 6.0 7.2
6.4 6.0 5.9 5.6 5.7 6.1 5.8 5.6 4.9 4.8 7.6 11.5 14.8 17.5 19.6 19.3 17.3 14.8 13.4 12.2 11.2 10.0 7.5 6.1 5.3 5.0 4.5 4.3 4.5 4.9 5.3 6.1 6.5 7.7 8.7 9.2 10.1 12.1 16.1 20.3 21.7 19.9 16.7 17.3 16.8 13.5 11.8 11.5 10.1 7.5 6.6 6.5 5.8 4.9 5.4 5.5 5.5 6.8 6.6 8.1 8.8 9.9 7.4
7.4 6.1 5.8 6.0 6.2 6.5 6.2 6.2 5.1 5.8 11.2 13.8 18.4 24.0 25.0 22.9 20.6 17.7 15.3 13.4 12.3 10.8 9.5 8.2 7.2 6.4 5.7 5.7 5.5 5.7 6.1 6.9 7.2 7.7 8.1 8.8 10.2 11.5 13.8 17.1 18.2 20.4 20.1 17.9 18.1 17.0 14.0 12.1 10.3 7.5 6.3 6.3 6.4 7.1 6.5 6.3 7.0 8.1 9.1 9.5 9.5 8.6 8.3
7.0 6.9 6.9 7.1 8.0 7.4 6.8 6.8 5.6 7.2 11.9 15.2 21.2 26.4 29.8 25.5 21.7 19.1 15.8 13.1 11.6 10.5 9.4 8.6 8.9 8.3 7.3 6.2 5.2 5.7 5.9 6.4 6.5 6.3 6.9 7.8 8.6 9.0 11.2 15.5 20.7 19.9 17.5 19.3 20.5 20.3 16.4 12.0 10.7 10.3 7.4 5.8 6.7 7.4 9.4 8.3 9.7 9.6 9.6 9.9 9.8 8.3 6.4
8.2 8.1 8.7 9.1 9.6 9.3 8.9 8.3 7.1 8.0 13.5 19.4 23.6 28.8 34.0 28.1 24.0 19.8 16.4 13.6 11.5 10.0 9.0 8.3 8.5 8.8 8.1 6.5 5.9 6.0 6.2 6.3 6.9 6.9 7.2 8.2 8.9 9.3 8.7 10.0 10.8 11.0 10.8 13.3 17.4 20.1 19.8 11.7 9.8 9.3 7.8 8.3 7.5 10.2 13.2 13.6 13.7 11.6 12.3 11.9 11.5 8.0 7.3
9.7 9.8 10.2 10.4 11.5 11.4 11.3 9.5 8.0 11.1 17.1 21.0 25.0 29.6 36.2 30.4 24.5 19.4 15.4 12.3 10.7 10.0 9.3 8.4 8.0 7.9 7.6 6.8 6.7 6.4 6.2 6.8 7.6 8.2 9.2 8.9 8.4 7.6 6.9 6.3 6.2 7.4 9.7 11.2 11.0 13.4 14.5 12.5 10.1 8.9 8.1 8.2 9.9 13.4 14.6 14.3 14.2 12.8 13.1 12.8 10.8 10.7 9.7
8.6 9.1 9.2 8.9 9.7 10.9 10.8 8.5 7.9 12.2 17.1 19.7 25.1 32.1 31.9 30.0 23.8 19.1 14.9 11.9 9.9 9.0 8.0 7.4 7.8 8.6 8.5 7.6 7.0 6.2 9.2 8.5 9.3 11.7 12.5 11.4 8.9 7.2 6.0 5.6 4.8 7.3 9.3 8.8 11.7 13.2 13.0 12.8 12.6 15.5 16.3 16.3 17.0 17.3 16.4 15.3 14.8 14.7 16.3 18.3 19.3 16.5 9.8
6.9 7.2 8.1 8.4 8.6 9.1 8.5 7.8 7.7 9.7 15.3 17.7 23.1 34.1 36.8 32.2 24.5 18.7 15.1 11.5 9.6 8.7 8.0 7.3 7.2 7.8 8.4 7.8 7.0 6.5 10.6 13.2 15.2 18.2 17.8 15.9 12.9 9.7 8.4 6.9 4.6 7.6 15.1 22.6 28.4 32.8 29.1 27.7 28.7 31.2 35.0 34.5 32.7 24.6 23.1 25.3 28.0 24.6 16.8 18.5 20.3 14.5 9.3
7.1 7.1 7.4 8.3 8.4 8.3 8.7 7.9 6.9 8.4 12.6 16.2 21.3 30.8 34.3 32.2 27.8 21.0 16.1 13.3 11.0 9.8 9.2 7.4 7.4 7.4 8.2 8.2 7.1 9.2 12.7 17.9 19.6 26.1 23.7 21.2 18.5 15.0 12.1 7.7 4.4 3.7 4.4 11.0 18.3 22.8 24.3 27.5 24.6 23.5 23.9 26.6 25.9 24.4 18.2 26.2 32.6 20.6 13.4 15.9 14.6 14.4 8.4
7.3 7.1 7.1 7.2 7.4 7.2 8.4 8.2 7.0 7.0 10.9 14.3 21.8 27.5 31.0 30.6 26.6 23.1 17.5 14.6 13.0 10.2 8.6 7.3 6.4 7.1 8.7 8.4 8.7 14.3 18.1 25.9 22.6 26.9 24.6 19.6 18.4 18.2 15.4 9.7 6.2 5.2 5.2 5.2 6.5 7.7 8.6 10.3 12.7 11.9 12.4 11.3 12.4 14.3 16.9 17.9 20.5 17.3 16.9 18.7 14.7 12.4 11.0
6.2 6.4 6.4 6.5 7.7 8.3 8.1 8.2 7.5 7.4 8.1 15.8 23.1 24.5 26.4 27.9 26.8 24.7 20.1 16.9 14.6 14.1 12.0 9.3 8.1 6.8 7.2 11.6 17.1 17.4 23.2 25.0 32.4 29.6 29.9 24.5 24.1 21.8 15.8 8.5 6.7 6.7 7.1 7.1 6.7 6.2 5.4 6.4 6.7 8.4 10.2 10.2 9.6 9.0 10.2 12.7 12.1 13.6 15.3 16.6 15.4 12.7 11.6
6.0 6.7 7.1 6.8 7.2 8.1 8.3 8.2 8.0 7.0 8.4 16.4 19.8 18.8 26.9 27.5 23.8 19.4 17.7 17.6 16.8 14.0 12.0 10.2 8.6 7.3 6.0 7.4 11.8 16.1 22.1 25.1 32.6 35.5 30.6 28.8 26.3 19.7 14.2 11.8 14.0 11.3 8.3 9.0 8.0 6.8 6.1 5.8 6.2 7.7 9.6 10.8 10.0 9.3 9.1 10.3 8.3 8.6 8.7 11.9 14.6 14.6 13.1
6.8 6.9 6.3 5.9 6.3 7.5 7.8 7.3 6.9 7.6 8.1 13.3 17.6 19.0 21.9 23.9 22.3 17.3 19.3 21.0 16.4 12.0 9.9 8.0 7.2 7.2 6.4 6.6 10.5 17.6 25.9 30.2 34.4 36.9 27.8 25.3 28.3 29.0 25.0 16.6 13.9 11.6 10.4 9.2 8.6 8.1 7.6 7.0 6.8 7.4 8.0 10.3 10.8 9.8 9.3 9.2 8.3 7.0 6.1 5.6 6.4 8.9 11.3
7.1 6.9 6.5 6.4 6.8 7.1 7.1 6.9 6.7 7.5 7.4 9.1 13.6 16.0 18.7 21.9 24.6 22.0 18.2 18.8 17.5 12.9 9.7 7.7 7.4 6.8 6.9 9.2 18.3 24.5 30.3 30.7 31.4 27.6 27.0 27.7 25.9 25.1 21.3 19.8 20.3 17.5 15.6 12.9 10.7 9.8 10.4 8.7 6.9 7.3 7.1 7.0 9.0 9.1 7.7 8.2 7.7 7.3 6.8 6.9 5.9 5.5 5.9
7.3 6.9 7.2 7.6 7.4 7.0 6.5 6.4 7.0 6.6 5.9 6.6 9.2 14.0 18.9 19.3 22.6 22.3 18.9 16.8 15.1 12.1 10.6 9.6 8.9 10.1 12.8 19.9 20.8 22.7 25.8 27.5 24.2 23.6 26.7 25.9 22.7 17.0 17.0 20.3 22.6 22.3 20.9 17.2 14.2 12.8 10.6 8.7 6.1 5.8 5.5 6.0 5.5 7.5 8.8 8.6 8.8 7.8 7.3 7.3 6.5 5.5 5.3
6.8 7.5 7.4 7.3 7.3 7.3 6.9 6.7 7.0 6.3 5.8 5.8 6.6 9.0 11.8 14.6 17.3 16.3 14.1 14.0 11.7 10.9 11.0 10.0 11.5 14.6 16.6 18.1 19.5 20.1 18.2 17.4 15.4 15.7 19.4 17.0 16.9 17.4 17.7 19.6 18.7 17.4 17.8 20.7 19.3 14.3 10.0 6.9 5.2 4.5 4.4 4.4 5.5 6.8 9.3 10.9 10.9 10.4 8.7 8.2 7.6 7.1 5.8
7.8 7.5 7.1 7.4 7.0 7.4 7.8 8.1 6.9 6.1 6.2 6.5 7.0 7.6 8.1 10.0 10.4 10.8 10.4 11.2 10.3 8.0 7.3 7.9 11.0 8.8 8.9 9.7 10.5 12.4 14.9 18.6 13.9 11.5 11.0 12.0 13.7 15.3 17.7 18.1 16.2 13.8 14.2 14.8 12.4 11.5 10.3 7.6 5.6 5.7 5.9 5.8 6.6 8.2 9.6 10.9 12.4 13.3 12.5 10.8 10.7 10.1 9.4
8.4 8.8 9.0 9.1 8.5 8.7 8.7 8.3 6.5 6.2 6.9 8.5 10.2 10.5 9.8 9.7 10.0 9.9 9.1 9.6 10.5 9.4 8.1 7.4 7.9 8.3 8.7 8.9 8.8 10.8 12.4 11.8 9.6 10.0 12.9 11.8 11.1 14.5 15.7 19.0 14.0 11.7 11.9 10.6 9.7 9.5 8.2 7.7 8.2 8.0 9.7 10.2 9.3 9.4 8.5 8.4 9.7 12.1 12.2 10.5 10.1 10.1 10.3
13.2 14.3 14.5 15.3 13.3 12.7 10.5 8.7 7.3 7.2 9.4 13.8 14.4 13.7 11.9 11.3 11.6 12.7 12.8 10.5 10.0 10.1 9.4 10.0 9.4 9.6 9.7 11.0 11.9 12.1 12.4 12.2 11.8 10.6 9.7 9.6 10.7 12.1 13.1 14.2 13.4 12.7 13.4 12.2 11.6 12.1 11.1 12.0 11.9 13.2 11.9 10.3 9.6 8.0 7.1 7.4 8.9 9.5 11.7 12.5 12.3 15.3 14.0
22.9 21.0 21.2 18.9 17.6 18.4 16.8 13.6 13.0 11.2 12.0 15.8 15.7 16.7 17.3 17.6 16.0 14.7 14.6 11.7 11.3 13.4 13.0 11.5 11.5 11.1 10.4 9.8 9.7 10.1 10.4 10.0 9.6 9.1 9.4 10.8 11.4 10.8 11.1 11.4 13.4 15.1 13.1 11.5 12.8 14.5 14.3 14.0 13.5 12.4 10.8 10.9 10.9 9.2 7.8 7.7 9.5 10.0 10.5 12.4 15.0 17.1 13.7
28.0 27.1 25.8 24.2 18.0 17.2 21.7 20.8 16.2 13.2 18.5 20.7 21.3 24.1 20.6 19.3 21.0 18.5 16.5 13.7 12.6 12.5 13.4 11.9 10.6 9.6 9.2 8.6 8.1 8.4 8.1 8.0 8.1 8.5 8.7 9.6 10.4 10.4 10.8 11.3 12.1 12.7 12.2 11.4 12.6 13.0 14.1 13.3 12.6 11.4 10.7 11.0 11.0 10.2 8.9 8.3 10.1 11.5 11.6 14.3 17.0 17.4 14.9
24.3 25.9 21.3 21.7 25.0 19.9 13.6 12.2 11.3 11.5 18.2 21.6 26.3 26.2 23.2 24.4 21.6 20.9 19.6 16.3 16.0 14.6 12.5 11.1 9.8 8.9 8.0 7.5 7.4 7.6 7.3 7.4 7.9 7.9 8.1 8.7 9.2 9.5 10.1 10.7 11.0 12.0 11.8 11.7 12.2 12.7 13.4 12.6 12.2 11.3 9.8 10.0 8.9 8.9 9.6 10.5 11.5 11.3 12.9 13.8 13.5 14.3 12.5
19.7 21.5 24.0 20.7 21.4 24.3 21.5 15.7 14.1 14.6 22.0 25.6 29.0 29.7 25.1 24.0 24.5 22.8 20.0 16.4 16.1 16.9 13.1 10.3 9.1 8.7 8.2 7.5 7.7 6.9 6.5 7.3 8.3 8.6 8.9 8.6 7.9 7.2 7.2 8.3 9.7 10.7 11.2 11.1 11.3 11.2 12.1 12.9 12.9 12.1 10.8 9.6 9.0 9.1 9.4 10.3 12.2 13.3 15.7 14.7 13.4 12.7 11.2
11.4 13.5 16.0 17.1 20.1 22.2 23.6 20.1 18.8 18.7 22.8 24.9 26.6 25.1 20.0 19.4 18.9 15.9 14.9 13.0 12.8 12.6 11.4 9.8 9.2 9.1 8.4 8.2 8.0 7.5 7.7 8.1 8.9 8.2 7.8 7.6 7.9 7.0 6.0 6.2 6.5 7.8 9.2 10.0 10.2 10.6 11.1 12.6 11.9 12.5 12.2 11.8 10.3 10.3 10.2 8.9 9.5 9.5 10.3 11.9 13.6 12.4 11.2
8.0 7.7 8.3 8.6 10.7 13.3 15.1 14.1 14.2 14.3 14.2 16.2 18.3 17.8 18.0 19.1 16.4 12.8 14.2 13.6 13.7 12.1 11.2 9.3 8.9 8.5 8.7 8.7 8.8 9.0 9.0 9.2 9.2 7.8 7.3 6.5 6.1 6.2 6.0 5.3 5.5 6.7 7.8 8.4 9.1 10.0 9.8 10.5 11.1 12.3 13.2 13.8 12.1 10.8 9.9 10.1 9.1 8.9 10.8 11.9 11.3 10.6 9.9
7.4 6.2 6.8 8.8 8.9 10.2 11.2 10.2 10.0 11.6 13.9 15.8 16.6 16.9 19.6 16.2 15.3 15.7 12.5 9.8 10.2 10.9 10.6 9.9 9.0 8.8 8.2 8.3 8.7 8.8 9.0 9.0 9.0 8.1 7.6 7.2 6.5 5.7 5.7 6.2 5.9 5.8 6.2 6.7 7.4 8.2 8.7 9.0 10.2 10.7 10.8 11.3 11.6 11.6 11.8 10.4 9.8 9.6 9.5 10.0 10.3 9.9 9.4
8.0 7.2 6.6 7.7 7.4 7.7 9.7 10.2 9.7 10.4 13.3 17.6 17.6 17.8 16.7 19.0 16.0 12.6 11.0 9.6 8.8 9.4 9.9 9.8 10.0 9.8 9.6 9.9 10.3 10.3 9.8 9.4 9.5 9.4 9.2 8.5 8.0 7.2 6.7 6.8 6.8 6.4 6.3 6.0 6.2 6.9 7.3 7.9 8.9 9.8 11.0 10.9 10.5 10.1 9.3 8.6 8.4 8.5 8.7 9.2 9.6 10.4 9.9